Torna al catalogo

TITAN 34B R/B

AttivoHEO
NORAD 7688·ROCKET BODY·🇺🇸 United States

Lanciato Mar 10, 1975 da Vandenberg Space Force Base

Loading…

Prossimi Passaggi (prossime 24 ore)

TLE

AggiornatoSource: Space-Track

Epoca: Sep 14, 2026, 14:50 UTC

1 07688U 75017B   26257.61808561  .00014510  00000-0  71335-3 0  9999
2 07688  63.2713 107.2368 5291818 273.6596  30.2236  5.21822829120886

Traccia TITAN 34B R/B in tempo reale con AllMySat

Download on the App Store